Location: Alvediston
(51.0078°N, 2.0364°W)
Time: 01:44:37
(UTC+00:00)

STARLINK-1033 - Pass Details

Date: 27 February 2020
Orbit: 548 x 551 km, 53.0° (Epoch: 03 April)

Event Time Altitude Azimuth Distance (km) Brightness Sun altitude
Rises 18:03:27 0° 234° (SW) 2,710 8.5 -3.7°
Reaches altitude 10° 18:05:42 10° 231° (SW) 1,820 7.4 -4.1°
Maximum altitude 18:09:45 58° 152° (SSE) 644 3.9 -4.7°
Drops below altitude 10° 18:13:51 10° 74° (ENE) 1,830 5.6 -5.4°
Enters shadow 18:14:36 - 72° (ENE) 2,125 6.0 -5.5°
